KI7CSN-13 Weather Reports


Display with metric or nautical units.
time (UTC)temp
F
wind
direction
speed
MPH
gust
MPH
rain 1hr
in
rain 24hr
in
rain mn
in
humidity
%
barometer
mb
20260506231237 77 247 0.0 17.0 0.00 0.00 0.00 20 983.4
20260506230737 78 284 8.0 12.0 0.00 0.00 0.00 20 983.3
20260506230237 76 233 8.0 16.0 0.00 0.00 0.00 20 983.4
20260506225737 77 250 8.0 19.0 0.00 0.00 0.00 20 983.5
20260506225237 78 340 8.0 13.0 0.00 0.00 0.00 20 983.5
20260506224737 77 358 6.0 14.0 0.00 0.00 0.00 20 983.7
20260506224237 77 295 9.0 18.0 0.00 0.00 0.00 21 983.7
20260506223737 77 15 16.0 19.0 0.00 0.00 0.00 22 983.7
20260506223237 76 340 16.0 17.0 0.00 0.00 0.00 24 983.7
20260506222737 77 324 10.0 18.0 0.00 0.00 0.00 23 983.8
20260506222237 76 306 13.0 23.0 0.00 0.00 0.00 24 983.9
20260506221737 77 354 14.0 15.0 0.00 0.00 0.00 24 983.8
20260506221237 77 257 4.0 21.0 0.00 0.00 0.00 24 983.8
20260506220737 76 271 8.0 20.0 0.00 0.00 0.00 24 983.9
20260506220237 77 279 5.0 12.0 0.00 0.00 0.00 24 983.9
20260506215737 77 246 4.0 13.0 0.00 0.00 0.00 23 984.0
20260506215237 76 327 11.0 15.0 0.00 0.00 0.00 24 984.1
20260506214737 76 232 6.0 11.0 0.00 0.00 0.00 23 984.1
20260506214237 77 298 10.0 17.0 0.00 0.00 0.00 23 984.1
20260506213737 76 307 6.0 14.0 0.00 0.00 0.00 24 984.1
20260506213237 75 244 7.0 17.0 0.00 0.00 0.00 24 984.3
20260506212737 77 198 9.0 13.0 0.00 0.00 0.00 24 984.3
20260506212237 76 306 9.0 14.0 0.00 0.00 0.00 24 984.3
20260506211737 75 43 7.0 14.0 0.00 0.00 0.00 25 984.3
20260506211237 74 296 0.0 14.0 0.00 0.00 0.00 24 984.3
20260506210737 74 248 6.0 22.0 0.00 0.00 0.00 25 984.4
20260506210237 72 189 7.0 19.0 0.00 0.00 0.00 26 984.4
20260506205737 74 257 3.0 15.0 0.00 0.00 0.00 25 984.4
20260506205237 74 260 5.0 18.0 0.00 0.00 0.00 26 984.6
20260506204737 74 265 12.0 20.0 0.00 0.00 0.00 26 984.7
20260506204237 75 223 11.0 13.0 0.00 0.00 0.00 25 984.6
20260506203737 72 194 5.0 12.0 0.00 0.00 0.00 26 984.6
20260506203237 73 336 5.0 17.0 0.00 0.00 0.00 26 984.7
20260506202737 73 317 10.0 19.0 0.00 0.00 0.00 25 984.8
20260506202237 73 315 4.0 16.0 0.00 0.00 0.00 25 984.7
20260506201737 74 306 3.0 13.0 0.00 0.00 0.00 26 984.8
20260506201237 73 324 7.0 14.0 0.00 0.00 0.00 27 984.7
20260506200737 72 250 8.0 12.0 0.00 0.00 0.00 27 984.8
20260506200237 72 292 4.0 19.0 0.00 0.00 0.00 27 984.9
20260506195737 72 246 12.0 16.0 0.00 0.00 0.00 27 984.8
20260506195237 73 274 6.0 15.0 0.00 0.00 0.00 27 984.8
20260506194737 73 244 8.0 13.0 0.00 0.00 0.00 27 984.9
20260506194237 73 241 5.0 15.0 0.00 0.00 0.00 27 984.8
20260506193737 72 331 12.0 15.0 0.00 0.00 0.00 27 984.8
20260506193237 72 237 4.0 16.0 0.00 0.00 0.00 27 984.9
20260506192737 72 275 7.0 15.0 0.00 0.00 0.00 27 985.0
20260506192237 70 225 7.0 15.0 0.00 0.00 0.00 27 984.9
20260506191737 72 240 8.0 14.0 0.00 0.00 0.00 27 985.0
20260506191237 70 253 4.0 15.0 0.00 0.00 0.00 27 985.0
20260506190737 73 271 12.0 18.0 0.00 0.00 0.00 26 985.0
20260506190237 72 243 10.0 12.0 0.00 0.00 0.00 27 985.1
20260506185737 71 292 4.0 10.0 0.00 0.00 0.00 27 985.1
20260506185237 71 284 0.0 11.0 0.00 0.00 0.00 27 985.1
20260506184737 71 258 5.0 15.0 0.00 0.00 0.00 27 985.2
20260506184237 71 337 8.0 11.0 0.00 0.00 0.00 27 985.1
20260506183737 69 262 3.0 17.0 0.00 0.00 0.00 29 985.2
20260506183237 70 285 6.0 14.0 0.00 0.00 0.00 28 985.4
20260506182737 68 223 8.0 14.0 0.00 0.00 0.00 29 985.2
20260506182237 69 247 4.0 13.0 0.00 0.00 0.00 29 985.4
20260506181737 69 262 4.0 14.0 0.00 0.00 0.00 29 985.4
20260506181237 68 19 8.0 16.0 0.00 0.00 0.00 29 985.2
20260506180737 69 291 5.0 14.0 0.00 0.00 0.00 29 985.2
20260506180237 68 246 6.0 14.0 0.00 0.00 0.00 28 985.2
20260506175737 69 277 4.0 16.0 0.00 0.00 0.00 29 985.2
20260506175237 68 358 2.0 16.0 0.00 0.00 0.00 29 985.2
20260506174737 68 358 7.0 23.0 0.00 0.00 0.00 29 985.2
20260506174237 68 25 11.0 12.0 0.00 0.00 0.00 29 985.2
20260506173737 67 333 3.0 15.0 0.00 0.00 0.00 29 985.2
20260506173237 69 291 2.0 10.0 0.00 0.00 0.00 28 985.2
20260506172737 66 229 5.0 13.0 0.00 0.00 0.00 30 985.1
20260506172237 69 215 7.0 10.0 0.00 0.00 0.00 29 985.1
20260506171737 67 234 3.0 9.0 0.00 0.00 0.00 29 985.1
20260506171237 67 296 4.0 14.0 0.00 0.00 0.00 29 985.0
20260506170737 67 195 9.0 11.0 0.00 0.00 0.00 29 985.0
20260506170237 67 295 4.0 11.0 0.00 0.00 0.00 31 984.9
20260506165737 66 202 7.0 10.0 0.00 0.00 0.00 30 984.9
20260506165237 67 241 6.0 11.0 0.00 0.00 0.00 31 984.9
20260506164738 66 286 0.0 14.0 0.00 0.00 0.00 31 984.9
20260506164238 67 219 9.0 12.0 0.00 0.00 0.00 30 984.9
20260506163738 66 282 6.0 10.0 0.00 0.00 0.00 32 984.9
20260506163238 64 302 4.0 11.0 0.00 0.00 0.00 33 984.9
20260506162738 64 326 6.0 12.0 0.00 0.00 0.00 33 984.9
20260506162238 64 279 5.0 7.0 0.00 0.00 0.00 33 984.9
20260506161738 64 253 6.0 13.0 0.00 0.00 0.00 33 984.9
20260506161238 63 320 0.0 11.0 0.00 0.00 0.00 34 984.9
20260506160738 61 167 9.0 9.0 0.00 0.00 0.00 36 984.9
20260506160238 61 194 7.0 7.0 0.00 0.00 0.00 36 984.9
20260506155738 60 217 4.0 7.0 0.00 0.00 0.00 37 984.8
20260506155238 59 174 5.0 9.0 0.00 0.00 0.00 39 984.8
20260506154738 59 192 5.0 7.0 0.00 0.00 0.00 39 984.8
20260506154238 58 170 3.0 6.0 0.00 0.00 0.00 40 984.9
20260506153738 57 189 4.0 7.0 0.00 0.00 0.00 41 984.8
20260506153238 56 180 5.0 6.0 0.00 0.00 0.00 42 984.8
20260506152738 56 163 0.0 5.0 0.00 0.00 0.00 42 984.8
20260506152238 56 106 0.0 6.0 0.00 0.00 0.00 43 984.8
20260506151738 55 225 0.0 9.0 0.00 0.00 0.00 44 984.8
20260506151238 55 215 6.0 6.0 0.00 0.00 0.00 45 984.7
20260506150738 54 208 1.0 6.0 0.00 0.00 0.00 46 984.7
20260506150238 55 205 5.0 6.0 0.00 0.00 0.00 46 984.6
20260506145738 54 184 5.0 5.0 0.00 0.00 0.00 47 984.6
20260506145238 54 172 3.0 4.0 0.00 0.00 0.00 47 984.6
20260506144738 53 153 3.0 6.0 0.00 0.00 0.00 48 984.7
20260506144238 53 175 0.0 4.0 0.00 0.00 0.00 49 984.6
20260506143738 53 208 0.0 6.0 0.00 0.00 0.00 49 984.4
20260506143238 52 158 3.0 5.0 0.00 0.00 0.00 51 984.3
20260506142738 52 97 0.0 3.0 0.00 0.00 0.00 53 984.3
20260506142238 51 348 0.0 0.0 0.00 0.00 0.00 55 984.3
20260506141738 50 348 0.0 0.0 0.00 0.00 0.00 57 984.3
20260506141238 49 348 0.0 0.0 0.00 0.00 0.00 58 984.3
20260506140738 49 348 0.0 0.0 0.00 0.00 0.00 59 984.3
20260506140238 49 348 0.0 0.0 0.00 0.00 0.00 59 984.3
20260506135738 49 348 0.0 0.0 0.00 0.00 0.00 59 984.2
20260506135238 49 348 0.0 0.0 0.00 0.00 0.00 61 984.1
20260506134738 48 348 0.0 0.0 0.00 0.00 0.00 60 984.0
20260506134238 48 348 0.0 0.0 0.00 0.00 0.00 61 984.0
20260506133738 48 348 0.0 0.0 0.00 0.00 0.00 62 983.9
20260506133238 47 348 0.0 0.0 0.00 0.00 0.00 63 983.8
20260506132738 47 348 0.0 0.0 0.00 0.00 0.00 63 983.8
20260506132238 46 348 0.0 0.0 0.00 0.00 0.00 66 983.9
20260506131738 45 348 0.0 0.0 0.00 0.00 0.00 66 983.8
20260506131238 44 348 0.0 0.0 0.00 0.00 0.00 68 983.5
20260506130738 44 348 0.0 0.0 0.00 0.00 0.00 67 983.5
20260506130238 44 348 0.0 0.0 0.00 0.00 0.00 64 983.4
20260506125738 44 348 0.0 0.0 0.00 0.00 0.00 68 983.4
20260506125238 44 348 0.0 0.0 0.00 0.00 0.00 69 983.3
20260506124738 43 348 0.0 0.0 0.00 0.00 0.00 69 983.3
20260506124238 43 348 0.0 0.0 0.00 0.00 0.00 66 983.3
20260506123738 44 348 0.0 0.0 0.00 0.00 0.00 68 983.3
20260506123238 44 348 0.0 0.0 0.00 0.00 0.00 67 983.2
20260506122738 43 348 0.0 0.0 0.00 0.00 0.00 64 983.1
20260506122238 44 348 0.0 0.0 0.00 0.00 0.00 66 983.2
20260506121738 46 348 0.0 0.0 0.00 0.00 0.00 62 983.1
20260506121238 46 348 0.0 0.0 0.00 0.00 0.00 64 983.1
20260506120738 46 348 0.0 0.0 0.00 0.00 0.00 64 983.2
20260506120238 46 348 0.0 0.0 0.00 0.00 0.00 63 983.1
20260506115738 45 348 0.0 0.0 0.00 0.00 0.00 63 983.1
20260506115238 46 348 0.0 0.0 0.00 0.00 0.00 63 983.1
20260506114738 45 348 0.0 0.0 0.00 0.00 0.00 65 983.1
20260506114238 44 348 0.0 0.0 0.00 0.00 0.00 66 983.1
20260506113738 45 348 0.0 0.0 0.00 0.00 0.00 64 983.0
20260506113238 45 348 0.0 0.0 0.00 0.00 0.00 63 983.1
20260506112738 44 348 0.0 0.0 0.00 0.00 0.00 58 983.0
20260506112238 47 348 0.0 0.0 0.00 0.00 0.00 61 983.0
20260506111738 47 348 0.0 0.0 0.00 0.00 0.00 62 983.0
20260506111238 46 348 0.0 0.0 0.00 0.00 0.00 65 983.0
20260506110738 45 348 0.0 0.0 0.00 0.00 0.00 65 982.9
20260506110238 45 348 0.0 0.0 0.00 0.00 0.00 65 982.8
20260506105738 46 348 0.0 0.0 0.00 0.00 0.00 65 982.8
20260506105238 44 348 0.0 0.0 0.00 0.00 0.00 64 982.8
20260506104738 45 348 0.0 0.0 0.00 0.00 0.00 61 982.8
20260506104238 45 348 0.0 0.0 0.00 0.00 0.00 63 982.8
20260506103738 44 348 0.0 0.0 0.00 0.00 0.00 65 982.6
20260506103238 45 348 0.0 0.0 0.00 0.00 0.00 64 982.6
20260506102738 44 348 0.0 0.0 0.00 0.00 0.00 58 982.6
20260506102238 46 348 0.0 0.0 0.00 0.00 0.00 54 982.6
20260506101738 47 348 0.0 0.0 0.00 0.00 0.00 59 982.5
20260506101238 47 348 0.0 0.0 0.00 0.00 0.00 57 982.6
20260506100738 47 348 0.0 0.0 0.00 0.00 0.00 58 982.5
20260506100238 49 348 0.0 0.0 0.00 0.00 0.00 56 982.5
20260506095738 49 348 0.0 0.0 0.00 0.00 0.00 56 982.5
20260506095238 49 348 0.0 0.0 0.00 0.00 0.00 54 982.5
20260506094738 49 348 0.0 4.0 0.00 0.00 0.00 55 982.5
20260506094238 49 338 0.0 0.0 0.00 0.00 0.00 55 982.4
20260506093738 49 338 0.0 0.0 0.00 0.00 0.00 54 982.4
20260506093238 49 338 0.0 0.0 0.00 0.00 0.00 51 982.4
20260506092738 49 338 0.0 0.0 0.00 0.00 0.00 51 982.4
20260506092238 49 338 0.0 0.0 0.00 0.00 0.00 51 982.4
20260506091738 49 338 0.0 0.0 0.00 0.00 0.00 50 982.3
20260506091238 49 338 0.0 0.0 0.00 0.00 0.00 50 982.4
20260506090738 49 338 0.0 0.0 0.00 0.00 0.00 50 982.4
20260506090238 49 338 0.0 0.0 0.00 0.00 0.00 49 982.4
20260506085738 49 338 0.0 0.0 0.00 0.00 0.00 48 982.3
20260506085238 50 338 0.0 0.0 0.00 0.00 0.00 46 982.2
20260506084739 50 338 0.0 3.0 0.00 0.00 0.00 46 982.3
20260506084239 50 324 0.0 0.0 0.00 0.00 0.00 47 982.3
20260506083739 50 324 0.0 0.0 0.00 0.00 0.00 46 982.2
20260506083239 50 324 0.0 0.0 0.00 0.00 0.00 46 982.3
20260506082739 50 324 0.0 0.0 0.00 0.00 0.00 46 982.3
20260506082239 51 324 0.0 0.0 0.00 0.00 0.00 46 982.3
20260506081739 50 324 0.0 5.0 0.00 0.00 0.00 44 982.3
20260506081239 50 28 0.0 0.0 0.00 0.00 0.00 44 982.3
20260506080739 50 28 0.0 0.0 0.00 0.00 0.00 44 982.2
20260506080239 50 28 0.0 0.0 0.00 0.00 0.00 44 982.2
20260506073239 51 28 0.0 4.0 0.00 0.00 0.00 42 982.2
20260506072739 51 358 0.0 0.0 0.00 0.00 0.00 43 982.3
20260506072239 51 358 0.0 0.0 0.00 0.00 0.00 43 982.2
20260506071739 50 358 0.0 0.0 0.00 0.00 0.00 44 982.1
20260506071239 50 358 0.0 0.0 0.00 0.00 0.00 45 982.1
20260506070739 50 358 0.0 0.0 0.00 0.00 0.00 43 982.0
20260506070239 50 358 0.0 0.0 0.00 0.00 0.00 42 982.0
20260506062239 52 358 0.0 0.0 0.00 0.00 0.00 41 981.9
20260506061739 52 358 0.0 2.0 0.00 0.00 0.00 40 981.7
20260506061239 52 358 1.0 3.0 0.00 0.00 0.00 40 981.7
20260506060739 52 33 0.0 2.0 0.00 0.00 0.00 40 981.6
20260506060239 51 322 0.0 0.0 0.00 0.00 0.00 40 981.6
20260506051239 54 95 0.0 3.0 0.00 0.00 0.00 37 981.5
20260506050739 54 119 2.0 5.0 0.00 0.00 0.00 38 981.4
20260506050239 54 246 0.0 0.0 0.00 0.00 0.00 36 981.3
20260506044739 55 271 0.0 3.0 0.00 0.00 0.00 36 981.3
20260506044239 55 303 2.0 4.0 0.00 0.00 0.00 37 981.2
20260506043739 55 323 3.0 4.0 0.00 0.00 0.00 37 981.3
20260506043239 55 253 0.0 4.0 0.00 0.00 0.00 37 981.2
20260506042739 55 267 3.0 5.0 0.00 0.00 0.00 37 981.2
20260506042239 56 336 0.0 6.0 0.00 0.00 0.00 37 981.2
20260506041739 56 279 0.0 6.0 0.00 0.00 0.00 37 981.1
20260506041239 56 274 6.0 7.0 0.00 0.00 0.00 37 981.1
20260506040739 56 206 0.0 6.0 0.00 0.00 0.00 37 981.0
20260506040239 56 250 0.0 7.0 0.00 0.00 0.00 37 980.8
20260506035739 56 233 0.0 8.0 0.00 0.00 0.00 37 980.8
20260506035239 56 324 0.0 9.0 0.00 0.00 0.00 37 980.7
20260506034739 56 307 3.0 6.0 0.00 0.00 0.00 37 980.6
20260506034239 56 260 4.0 8.0 0.00 0.00 0.00 36 980.5
20260506033739 56 310 0.0 7.0 0.00 0.00 0.00 37 980.5
20260506033239 56 250 2.0 5.0 0.00 0.00 0.00 37 980.4
20260506032739 56 248 5.0 8.0 0.00 0.00 0.00 36 980.4
20260506032239 56 279 0.0 7.0 0.00 0.00 0.00 37 980.4
20260506031739 56 182 3.0 6.0 0.00 0.00 0.00 37 980.3
20260506031239 56 251 3.0 7.0 0.00 0.00 0.00 36 980.3
20260506030739 56 258 0.0 6.0 0.00 0.00 0.00 36 980.2
20260506030239 57 262 3.0 5.0 0.00 0.00 0.00 35 980.2
20260506025739 57 227 5.0 6.0 0.00 0.00 0.00 35 980.0
20260506025239 58 217 4.0 11.0 0.00 0.00 0.00 35 979.9
20260506024739 58 229 0.0 11.0 0.00 0.00 0.00 35 979.8
20260506024239 58 234 8.0 12.0 0.00 0.00 0.00 35 979.8
20260506023739 58 251 7.0 11.0 0.00 0.00 0.00 35 979.8
20260506023239 58 241 4.0 11.0 0.00 0.00 0.00 35 979.8
20260506022739 58 257 5.0 10.0 0.00 0.00 0.00 34 979.7
20260506022239 59 236 6.0 12.0 0.00 0.00 0.00 33 979.6
20260506021739 59 272 7.0 14.0 0.00 0.00 0.00 33 979.5
20260506021239 59 260 4.0 11.0 0.00 0.00 0.00 33 979.5
20260506020739 59 336 5.0 12.0 0.00 0.00 0.00 33 979.4
20260506020239 59 261 6.0 12.0 0.00 0.00 0.00 33 979.4
20260506015739 59 210 10.0 13.0 0.00 0.00 0.00 33 979.1
20260506015240 59 234 6.0 13.0 0.00 0.00 0.00 33 979.1
20260506014739 60 240 9.0 14.0 0.00 0.00 0.00 33 979.0
20260506014239 61 226 10.0 16.0 0.00 0.00 0.00 33 979.0
20260506013739 60 216 12.0 17.0 0.00 0.00 0.00 33 979.0
20260506013239 62 209 4.0 17.0 0.00 0.00 0.00 32 978.9
20260506012739 61 212 13.0 16.0 0.00 0.00 0.00 33 978.9
20260506012239 62 255 5.0 14.0 0.00 0.00 0.00 31 978.9
20260506011739 61 202 12.0 16.0 0.00 0.00 0.00 33 978.8
20260506011239 62 230 8.0 14.0 0.00 0.00 0.00 31 978.8
20260506010739 63 267 7.0 14.0 0.00 0.00 0.00 29 978.7
20260506010239 62 246 12.0 18.0 0.00 0.00 0.00 31 978.7
20260506005739 62 209 8.0 17.0 0.00 0.00 0.00 31 978.7
20260506005239 63 253 7.0 19.0 0.00 0.00 0.00 31 978.7
20260506004739 63 247 8.0 15.0 0.00 0.00 0.00 31 978.6
20260506004239 63 295 8.0 15.0 0.00 0.00 0.00 31 978.5
20260506003739 61 250 8.0 18.0 0.00 0.00 0.00 33 978.5
20260506003239 62 233 9.0 21.0 0.00 0.00 0.00 32 978.4
20260506002739 62 244 12.0 17.0 0.00 0.00 0.00 31 978.4
20260506002239 63 275 5.0 14.0 0.00 0.00 0.00 33 978.4
20260506001740 64 262 5.0 16.0 0.00 0.00 0.00 31 978.4
20260506001240 63 253 4.0 14.0 0.00 0.00 0.00 31 978.2
20260506000740 64 260 11.0 19.0 0.00 0.00 0.00 31 978.2
20260506000240 63 255 12.0 18.0 0.00 0.00 0.00 31 978.2
20260505235740 63 220 11.0 15.0 0.00 0.00 0.00 31 978.0
20260505235240 63 277 8.0 13.0 0.00 0.00 0.00 31 978.0
20260505234740 62 326 6.0 18.0 0.00 0.00 0.00 32 978.1
20260505234240 63 281 5.0 18.0 0.00 0.00 0.00 31 978.0
20260505233740 64 267 4.0 15.0 0.00 0.00 0.00 31 978.0
20260505233240 62 278 6.0 21.0 0.00 0.00 0.00 31 978.1
20260505232740 63 279 10.0 15.0 0.00 0.00 0.00 31 977.9
20260505232240 63 268 8.0 19.0 0.00 0.00 0.00 31 977.9
20260505231740 63 216 9.0 15.0 0.00 0.00 0.00 31 977.9